Home > Weather > Hopedale > Past weeks

Flag for Canada Weather for the Past 2 Weeks in Hopedale, Newfoundland and Labrador, Canada

Now
-1 °F

Frigid.


Feels Like: -28 °F
Forecast: -8 / 2 °F
Wind: 36 mph from North

Location: Hopedale

Current Time: Feb 6, 2016 at 9:49:47 AM

Latest Report: Feb 6, 2016 at 9:00 AM


Visibility: N/A

Pressure: 29.81 "Hg

Humidity: 83%

Dew point: -5 °F

Location of HopedaleLocation

Historic Weather in Hopedale — Graph

°F

Hopedale Temperature Yesterday

Maximum temperature yesterday: 6 °F (at 3:00 PM)
Minimum temperature yesterday: 0 °F (at 7:00 PM)
Average temperature yesterday: 4 °F

High & Low Weather Summary for the Past Weeks

 TemperatureHumidityPressure
High22 °F (Feb 1, 10:00 AM)100% (Feb 1, 3:00 AM)30.12 "Hg (Feb 1, 3:00 AM)
Low-19 °F (Jan 29, 7:00 AM)46% (Jan 25, 4:00 PM)29.29 "Hg (Feb 2, 12:00 AM)
Average-2 °F71%29.77 "Hg
* Reported Jan 22 8:00 AM — Feb 6 8:00 AM, Hopedale, Weather by CustomWeather, © 2016

Note: Actual official high and low records may vary slightly from our data, if they occured in-between our weather recording intervals... More about our weather records

Advertising

Hopedale Weather History for the Previous 24 Hours

 ConditionsComfort  
Time TempWeatherWind HumidityBarometerVisibility
8:00 AM
Sat, Feb 6
0 °FFrigid.35 mph82%29.83 "HgN/A
7:00 AM0 °FFrigid.33 mph82%29.84 "HgN/A
6:00 AM1 °FFrigid.33 mph81%29.85 "HgN/A
5:00 AM1 °FFrigid.35 mph80%29.87 "HgN/A
4:00 AM2 °FFrigid.37 mph80%29.89 "HgN/A
3:00 AM2 °FFrigid.37 mph80%29.90 "HgN/A
2:00 AM2 °FFrigid.37 mph80%29.92 "HgN/A
1:00 AM3 °FFrigid.32 mph81%29.94 "HgN/A
12:00 AM4 °FFrigid.32 mph82%29.98 "HgN/A
11:00 PM
Fri, Feb 5
4 °FFrigid.32 mph83%30.00 "HgN/A
10:00 PM5 °FFrigid.38 mph81%30.02 "HgN/A
9:00 PM4 °FFrigid.32 mph83%30.06 "HgN/A
8:00 PM3 °FFrigid.32 mph81%30.06 "HgN/A
7:00 PM0 °FFrigid.35 mph84%30.03 "HgN/A
6:00 PM1 °FFrigid.28 mph81%30.08 "HgN/A
5:00 PM1 °FFrigid.25 mph82%30.09 "HgN/A
4:00 PM4 °FFrigid.31 mph73%30.06 "HgN/A
3:00 PM6 °FFrigid.30 mph75%30.05 "HgN/A
2:00 PM6 °FFrigid.31 mph77%30.07 "HgN/A
1:00 PM6 °FFrigid.33 mph78%30.05 "HgN/A
12:00 PM6 °FFrigid.35 mph82%30.07 "HgN/A
11:00 AM5 °FFrigid.29 mph81%30.10 "HgN/A
10:00 AM5 °FFrigid.31 mph77%30.08 "HgN/A
9:00 AM5 °FFrigid.37 mph77%30.05 "HgN/A
Weather by CustomWeather, © 2016

See weather overviewHow to use our weather pages